User: anonymous   Login
Location: Austin
(30.3000°N, 97.7500°W)
Time: 10:36:11
(UTC-06:00)
Language:

Envisat - Orbit

View from above orbital plane
View from above orbital plane
View from above satellite
View from above satellite

Ground track
Ground track

The orbit data is extracted from the following two-line orbital elements,

1 27386U 02009A   23334.47677182  .00000399  00000-0  14447-3 0  9998
2 27386  98.2553 297.8470 0001308  84.2147  26.7489 14.38457318139862
Epoch (UTC): 30 November 2023 11:26:33
Eccentricity: 0.0001308
inclination: 98.2553°
perigee height: 762 km
apogee height: 764 km
right ascension of ascending node: 297.8470°
argument of perigee: 84.2147°
revolutions per day: 14.38457318
mean anomaly at epoch: 26.7489°
orbit number at epoch: 13986

The dashed part of the orbit path shows where the satellite is in the earth's shadow,  

DLR